Weather History for Vidalia, GA

Change the Weather History Date:

Friday, June 6, 2014

  Actual Average (KAZE) Record (KAZE)
Temperature  
Mean Temperature 80 °F -  
Max Temperature 91 °F 86 °F 71 °F (2013)
Min Temperature 69 °F 70 °F 68 °F (2013)
Cooling Degree Days 15    
Growing Degree Days 30 (Base 50)    
Moisture  
Dew Point 71 °F    
Average Humidity 82    
Maximum Humidity 100    
Minimum Humidity 52    
Precipitation  
Precipitation 0.00 in - - ()
Sea Level Pressure  
Sea Level Pressure 29.92 in    
Wind  
Wind Speed 5 mph (WNW)    
Max Wind Speed 25 mph    
Max Gust Speed 37 mph    
Visibility 10 miles    
Events Rain , Thunderstorm    
Averages and records for this station are not official NWS values.
T = Trace of Precipitation, MM = Missing Value Source: NWS Daily Summary

Daily Weather History Graph

Daily Weather History Graph

Search for Another Location

Airport:

Trip Planner

Search our weather history database for the weather conditions in past years. The results will help you decide how hot, cold, wet, or windy it might be!

Date:

Astronomy

Jun. 06, 2014 Rise Set
Actual Time 6:22 AM EDT 8:33 PM EDT
Civil Twilight 5:54 AM EDT 9:01 PM EDT
Nautical Twilight 5:20 AM EDT 9:36 PM EDT
Astronomical Twilight 4:43 AM EDT 10:13 PM EDT
Moon 2:12 PM EDT (6/6) 1:51 AM EDT (6/6)
Length of Visible Light 15h 07m
Length of Day
14h 11m
First Quarter, 58% of the Moon is Illuminated
Jun 6
First Quarter
Jun 13
Full
Jun 19
Last Quarter
Jun 27
New
Jul 5
First Quarter

Hourly Weather History & Observations

Time (EDT) Temp. Heat Index Dew Point Humidity Pressure Visibility Wind Dir Wind Speed Gust Speed Precip Events Conditions
12:15 AM 71.6 °F - 69.8 °F 94% 29.89 in 10.0 mi SW 4.6 mph - N/A   Clear
12:35 AM 71.6 °F - 69.8 °F 94% 29.87 in 10.0 mi South 3.5 mph - N/A   Clear
12:55 AM 71.6 °F - 71.6 °F 100% 29.87 in 10.0 mi SSW 3.5 mph - N/A Thunderstorm Clear
1:15 AM 71.6 °F - 71.6 °F 100% 29.89 in 10.0 mi West 3.5 mph - N/A   Clear
1:35 AM 73.4 °F - 71.6 °F 94% 29.89 in 10.0 mi WSW 4.6 mph - N/A   Clear
1:55 AM 73.4 °F - 71.6 °F 94% 29.89 in 10.0 mi WSW 3.5 mph - N/A   Scattered Clouds
2:15 AM 73.4 °F - 71.6 °F 94% 29.89 in 10.0 mi NW 5.8 mph - N/A   Mostly Cloudy
2:35 AM 73.4 °F - 71.6 °F 94% 29.89 in 10.0 mi WNW 4.6 mph - N/A Rain Light Rain
2:55 AM 73.4 °F - 71.6 °F 94% 29.90 in 10.0 mi NNW 5.8 mph - N/A   Mostly Cloudy
3:15 AM 73.4 °F - 71.6 °F 94% 29.92 in 10.0 mi NNW 8.1 mph - N/A Rain Light Rain
3:35 AM 69.8 °F - 68.0 °F 94% 29.91 in 2.0 mi North 15.0 mph 29.9 mph N/A Rain Heavy Rain
3:55 AM 69.8 °F - 68.0 °F 94% 29.91 in 7.0 mi NNW 6.9 mph - N/A Rain , Thunderstorm Rain
4:15 AM 69.8 °F - 68.0 °F 94% 29.92 in 5.0 mi North 6.9 mph - N/A Rain , Thunderstorm Heavy Thunderstorms and Rain
4:35 AM 69.8 °F - 68.0 °F 94% 29.92 in 5.0 mi North 6.9 mph - N/A Rain , Thunderstorm Rain
4:55 AM 69.8 °F - 69.8 °F 100% 29.93 in 10.0 mi WSW 3.5 mph - N/A Rain , Thunderstorm Thunderstorms and Rain
5:15 AM 69.8 °F - 68.0 °F 94% 29.93 in 10.0 mi WNW 4.6 mph - N/A Rain Rain
5:35 AM 69.8 °F - 68.0 °F 94% 29.93 in 10.0 mi West 4.6 mph - N/A Rain Light Rain
5:55 AM 69.8 °F - 69.8 °F 100% 29.93 in 10.0 mi WSW 3.5 mph - N/A Rain Light Rain
6:15 AM 69.8 °F - 69.8 °F 100% 29.93 in 10.0 mi WSW 3.5 mph - N/A   Light Drizzle
6:35 AM 69.8 °F - 69.8 °F 100% 29.93 in 10.0 mi SW 5.8 mph - N/A   Mostly Cloudy
6:55 AM 69.8 °F - 69.8 °F 100% 29.94 in 10.0 mi Calm Calm - N/A   Scattered Clouds
7:15 AM 69.8 °F - 69.8 °F 100% 29.94 in 10.0 mi West 3.5 mph - N/A   Scattered Clouds
7:35 AM 69.8 °F - 69.8 °F 100% 29.95 in 10.0 mi Calm Calm - N/A   Scattered Clouds
7:55 AM 69.8 °F - 69.8 °F 100% 29.96 in 10.0 mi Calm Calm - N/A   Clear
8:15 AM 71.6 °F - 69.8 °F 94% 29.96 in 10.0 mi WSW 3.5 mph - N/A   Scattered Clouds
8:35 AM 73.4 °F - 71.6 °F 94% 29.97 in 10.0 mi West 4.6 mph - N/A   Scattered Clouds
8:55 AM 73.4 °F - 71.6 °F 94% 29.97 in 10.0 mi West 6.9 mph - N/A   Clear
9:15 AM 73.4 °F - 71.6 °F 94% 29.96 in 10.0 mi West 3.5 mph - N/A   Clear
9:35 AM 77.0 °F - 71.6 °F 83% 29.96 in 10.0 mi West 3.5 mph - N/A   Clear
9:55 AM 77.0 °F - 71.6 °F 83% 29.95 in 10.0 mi West 3.5 mph - N/A   Clear
10:15 AM 78.8 °F - 69.8 °F 74% 29.94 in 10.0 mi West 5.8 mph - N/A   Clear
10:35 AM 78.8 °F - 71.6 °F 78% 29.95 in 10.0 mi WSW 4.6 mph - N/A   Clear
10:55 AM 80.6 °F 84.6 °F 71.6 °F 74% 29.94 in 10.0 mi West 3.5 mph - N/A   Clear
11:15 AM 82.4 °F 87.2 °F 71.6 °F 70% 29.94 in 10.0 mi WNW 4.6 mph - N/A   Clear
11:35 AM 82.4 °F 87.2 °F 71.6 °F 70% 29.94 in 10.0 mi WNW 8.1 mph - N/A   Clear
11:55 AM 84.2 °F 89.6 °F 71.6 °F 66% 29.94 in 10.0 mi West 8.1 mph - N/A   Clear
12:15 PM 86.0 °F 91.8 °F 71.6 °F 62% 29.94 in 10.0 mi WNW 6.9 mph - N/A   Clear
12:35 PM 86.0 °F 91.8 °F 71.6 °F 62% 29.93 in 10.0 mi WNW 6.9 mph - N/A   Clear
12:55 PM 87.8 °F 95.6 °F 73.4 °F 62% 29.92 in 10.0 mi WNW 8.1 mph - N/A   Clear
1:15 PM 87.8 °F 95.6 °F 73.4 °F 62% 29.92 in 10.0 mi NW 6.9 mph - N/A   Clear
1:35 PM 87.8 °F 95.6 °F 73.4 °F 62% 29.91 in 10.0 mi WNW 8.1 mph - N/A   Scattered Clouds
1:55 PM 87.8 °F 95.6 °F 73.4 °F 62% 29.91 in 10.0 mi West 5.8 mph - N/A   Scattered Clouds
2:15 PM 89.6 °F 96.2 °F 71.6 °F 55% 29.91 in 10.0 mi NW 9.2 mph - N/A   Scattered Clouds
2:35 PM 89.6 °F 98.2 °F 73.4 °F 59% 29.90 in 10.0 mi WNW 9.2 mph 16.1 mph N/A   Scattered Clouds
2:55 PM 89.6 °F 96.2 °F 71.6 °F 55% 29.89 in 10.0 mi West 9.2 mph - N/A   Scattered Clouds
3:15 PM 89.6 °F 96.2 °F 71.6 °F 55% 29.89 in 10.0 mi West 5.8 mph - N/A   Scattered Clouds
3:35 PM 89.6 °F 96.2 °F 71.6 °F 55% 29.89 in 10.0 mi NW 6.9 mph - N/A   Scattered Clouds
3:55 PM 89.6 °F 96.2 °F 71.6 °F 55% 29.89 in 10.0 mi WNW 8.1 mph - N/A   Scattered Clouds
4:15 PM 89.6 °F 96.2 °F 71.6 °F 55% 29.88 in 10.0 mi NW 5.8 mph - N/A   Scattered Clouds
4:35 PM 91.4 °F 100.1 °F 73.4 °F 55% 29.88 in 10.0 mi NNW 6.9 mph - N/A   Scattered Clouds
4:55 PM 91.4 °F 98.4 °F 71.6 °F 52% 29.88 in 10.0 mi WNW 9.2 mph - N/A   Scattered Clouds
5:15 PM 87.8 °F 93.8 °F 71.6 °F 58% 29.88 in 10.0 mi WNW 5.8 mph - N/A Thunderstorm Scattered Clouds
5:35 PM 87.8 °F 93.8 °F 71.6 °F 58% 29.89 in 10.0 mi West 4.6 mph - N/A Thunderstorm Thunderstorm
5:55 PM 82.4 °F 87.2 °F 71.6 °F 70% 29.92 in 10.0 mi West 11.5 mph 20.7 mph N/A Rain , Thunderstorm Light Thunderstorms and Rain
6:15 PM 77.0 °F - 69.8 °F 78% 29.91 in 10.0 mi WSW 13.8 mph - N/A Rain , Thunderstorm Light Thunderstorms and Rain
6:35 PM 75.2 °F - 69.8 °F 83% 29.92 in 10.0 mi NW 3.5 mph - N/A Rain , Thunderstorm Light Thunderstorms and Rain
6:55 PM 77.0 °F - 69.8 °F 78% 29.91 in 10.0 mi North 4.6 mph - N/A Rain , Thunderstorm Light Thunderstorms and Rain
7:15 PM 77.0 °F - 69.8 °F 78% 29.90 in 10.0 mi NW 3.5 mph - N/A   Scattered Clouds
7:35 PM 77.0 °F - 69.8 °F 78% 29.92 in 10.0 mi Calm Calm - N/A Thunderstorm Clear
7:55 PM 77.0 °F - 69.8 °F 78% 29.92 in 10.0 mi Calm Calm - N/A   Scattered Clouds
8:15 PM 77.0 °F - 69.8 °F 78% 29.92 in 10.0 mi Calm Calm - N/A   Mostly Cloudy
8:35 PM 77.0 °F - 71.6 °F 83% 29.91 in 10.0 mi NNE 4.6 mph - N/A Thunderstorm Mostly Cloudy
8:55 PM 75.2 °F - 69.8 °F 83% 29.92 in 10.0 mi NW 3.5 mph - N/A Thunderstorm Scattered Clouds
9:15 PM 75.2 °F - 68.0 °F 78% 29.97 in 10.0 mi NW 25.3 mph 36.8 mph N/A Thunderstorm Mostly Cloudy
9:35 PM 69.8 °F - 68.0 °F 94% 29.98 in 4.0 mi West 5.8 mph 17.3 mph N/A Rain , Thunderstorm Heavy Thunderstorms and Rain
9:55 PM 69.8 °F - 68.0 °F 94% 29.98 in 10.0 mi West 4.6 mph - N/A Rain , Thunderstorm Light Thunderstorms and Rain
10:15 PM 69.8 °F - 68.0 °F 94% 29.96 in 10.0 mi Calm Calm - N/A Rain , Thunderstorm Thunderstorms and Rain
10:35 PM 69.8 °F - 69.8 °F 100% 29.96 in 10.0 mi WSW 3.5 mph - N/A Rain , Thunderstorm Light Thunderstorms and Rain
10:55 PM 69.8 °F - 69.8 °F 100% 29.97 in 10.0 mi West 3.5 mph - N/A   Scattered Clouds
11:15 PM 69.8 °F - 69.8 °F 100% 29.97 in 10.0 mi West 3.5 mph - N/A   Clear
11:35 PM 71.6 °F - 69.8 °F 94% 29.96 in 10.0 mi Calm Calm - N/A   Scattered Clouds
11:55 PM 71.6 °F - 69.8 °F 94% 29.96 in 10.0 mi West 3.5 mph - N/A   Mostly Cloudy